Location: Unspecified
(0.0000°N, 0.0000°E)
Time: 11:17:28
(UTC+00:00)

Vanguard 2 Rocket - Pass Details

Date: 19 November 2019
Orbit: 554 x 3326 km, 32.9° (Epoch: 13 December)

Event Time Altitude Azimuth Distance (km) Brightness Sun altitude
Rises 16:27:08 0° 223° (SW) 6,881 12.5 18.4°
Reaches altitude 10° 16:35:14 10° 204° (SSW) 5,324 11.6 16.5°
Maximum altitude 16:42:57 16° 172° (S) 4,177 10.5 14.7°
Drops below altitude 10° 16:48:58 10° 139° (SE) 3,998 10.0 13.3°
Sets 16:53:29 0° 117° (ESE) 4,461 10.0 12.2°
